Weather Roundup
Issued by NWS Chicago, IL

Home | Current Version | Previous Version | Text Only | Print | Product List | Glossary On
Versions: 1 2 3 4 5 6 7 8 9 10 11 12 13 14 15 16 17 18 19 20 21 22 23 24 25 26 27 28 29 30 31 32 33 34 35 36 37 38 39 40 41 42 43 44 45 46 47 48 49 50
000
NZUS59 KLOT 281212
HRRLOT

CHICAGO AREA WEATHER ROUNDUP
NATIONAL WEATHER SERVICE CHICAGO/ROMEOVILLE IL
600 AM CST TUE FEB 28 2017

NOTE: "FAIR" INDICATES FEW OR NO CLOUDS BELOW 12,000 FEET WITH NO
SIGNIFICANT WEATHER AND/OR OBSTRUCTIONS TO VISIBILITY.

* THESE STATIONS ARE NOT UNDER NWS QUALITY CONTROL. THEY ALSO MAY NOT
  REPORT WEATHER SUCH AS PRECIPITATION OR FOG.

ILZ005-006-012>014-019>023-281300-
NORTHEAST ILLINOIS

CITY           SKY/WX    TMP DP  RH WIND       PRES   REMARKS
OHARE          CLOUDY    50  45  83 S16       29.85S
6HR MIN TEMP:  47; 6HR MAX TEMP:  50; 6HR PCP:  0.01;

MIDWAY         CLOUDY    50  44  80 S12       29.87S
6HR MIN TEMP:  47; 6HR MAX TEMP:  50; 6HR PCP:  0.01;

AURORA         MOCLDY    48  45  89 S18       29.82F
6HR MIN TEMP:  46; 6HR MAX TEMP:  49; 6HR PCP:  0.01;

LANSING*       CLOUDY    47  46  95 S12       29.90R
JOLIET*        CLOUDY    51  48  89 S9        29.87F
WAUKEGAN       CLOUDY    40  39  97 SE5       29.83F FOG
6HR MIN TEMP:  40; 6HR MAX TEMP:  41; 6HR PCP:  0.10;

DUPAGE AIRPORT CLOUDY    49  44  83 S16       29.80F
6HR MIN TEMP:  46; 6HR MAX TEMP:  49; 6HR PCP:  0.01;

WHEELING       CLOUDY    49  45  86 S16       29.85F
6HR MIN TEMP:  44; 6HR MAX TEMP:  49; 6HR PCP: TRACE;

KANKAKEE*      CLOUDY    48  46  91 S12G17    29.90S
MORRIS*        CLOUDY    48  46  90 S8        29.86S
LEWIS AIRPORT* CLOUDY    48  47  97 S15       29.86F
NORTHERLY ISL    N/A     49  43  80 S12         N/A
$$

WIZ051-052-058>065-066-070>072-281300-
SOUTHEAST WISCONSIN

CITY           SKY/WX    TMP DP  RH WIND       PRES   REMARKS
MILWAUKEE      CLOUDY    42  40  92 SE10      29.83F FOG
6HR MIN TEMP:  41; 6HR MAX TEMP:  44; 6HR PCP:  0.20;

KENOSHA*       CLOUDY    41  40  96 E7        29.83F FOG
RACINE*        CLOUDY    41  39  93 SE7       29.85F FOG
WAUKESHA       CLOUDY    39  39 100 SE7       29.83F FOG
WEST BEND      CLOUDY    41  41 100 SE6       29.83F FOG
$$

INZ001>003-010>013-019-020-281300-
NORTHWEST INDIANA

CITY           SKY/WX    TMP DP  RH WIND       PRES   REMARKS
GARY*          CLOUDY    50  45  81 S13       29.90R
MICHIGAN CITY* NOT AVBL
RENSSELAER*    NOT AVBL
VALPARAISO     CLOUDY    48  45  89 S14G21    29.93S
$$

LMZ740>746-281300-
SOUTHERN LAKE MICHIGAN

STATION/POSITION TIME  SKY/WX   TEMP WIND        PRES    VSBY
                                AIR  DIR/SP/G
                 (UTC)          (F)  (DEG/KT/KT) (MB)    (MI)
HARRISON CRIB    1140            49  190/ 23/ 24   N/A
BURNHAM HARBOR   1200            49  200/ 11/ 15   N/A
CALUMET HARBOR   1148            49  170/ 11/ 18 1011.3S
BURNS HARBOR     1140            49  170/ 13/ 24 1013.2R
MICHIGAN CITY    1140            48  140/ 16/ 21   N/A
$$

ABBREVIATIONS USED IN REMARKS
   TC - TEMPERATURE IN CELSIUS
  WCI - WIND CHILL INDEX
   HX - HEAT INDEX
  VSB - VISIBILITY
$$



USA.gov is the U.S. government's official web portal to all federal, state and local government web resources and services.